Find Starlink 6115

NORAD ID: 56123 Int'l Des: 2023-046 Owner: SPXS Country: US Constellation: starlink operational
LEOCIRCULAR

Live Position

Loading 3D Globe...

About Starlink 6115

Description loading...

Upcoming Passes

Passes for default location (London). Set your location on the main map for personalized predictions.

Altitude History

Loading altitude history...

Two-Line Element Set

1 56123U 23046AH 26105.95520769 .00030332 00000-0 11124-2 0 9991
2 56123 43.0013 297.0208 0001236 276.4907 83.5804 15.27427826167898
Epoch: Apr 15, 2026 • Age: 16 hours

Current Status

Altitude 483.1 km
Velocity 7.63 km/s
Sub-Earth Point 18.30°N, 18.47°E
Launch Date Mar 29, 2023
Age 3 years
Type internet

Technical Details

Classification Payload
Mass 305.00 kg
Dry Mass 290.00 kg
Total Mass 305.00 kg
Length 0.20 m
Diameter 2.80 m
Span 9.00 m
Shape Box + pan
Manufacturer SPXS
Bus Type Starlink
Phase Status In Orbit
Owner/State SPXS/US

Most Searched